Location: Azul
(36.7830°S, 59.8500°W)
Time: 01:00:33
(UTC-03:00)

HuskySat-1 - Pass Details

Date: 27 October 2021
Orbit: 443 x 456 km, 51.6° (Epoch: 04 December)

Event Time Altitude Azimuth Distance (km) Brightness Sun altitude
Exits shadow 04:18:07 28° 17° (NNE) 884 ? -19.2°
Drops below altitude 10° 04:20:01 10° 31° (NNE) 1,583 ? -18.9°
Sets 04:22:10 0° 36° (NE) 2,445 ? -18.5°
